Home   Weather   Mulhouse   Past weeks

Flag for France Past Weather in Mulhouse, Alsace, France — Yesterday and Last 2 Weeks

Now
48 °F

Sunny.


Feels Like: 46 °F
Forecast: 39 / 52 °F
Wind: 6 mph from South

Location: Bale-Mulhouse

Current Time: Nov 24, 2017 at 10:37:57 am

Latest Report: Nov 24, 2017 at 10:00 am


Visibility: 10 mi

Pressure: 29.95 "Hg

Humidity: 82%

Dew Point: 43 °F

Location of MulhouseLocation

Past Weather in Mulhouse — Graph

°F

Mulhouse Temperature Yesterday

Maximum temperature yesterday: 61 °F (at 4:00 pm)
Minimum temperature yesterday: 32 °F (at 2:30 am)
Average temperature yesterday: 45 °F

High & Low Weather Summary for the Past Weeks

 TemperatureHumidityPressure
High61 °F (Nov 23, 4:00 pm)100% (Nov 14, 3:00 am)30.33 "Hg (Nov 14, 3:00 am)
Low28 °F (Nov 16, 4:30 am)51% (Nov 22, 2:30 pm)29.47 "Hg (Nov 12, 2:00 pm)
Average41 °F86%30.11 "Hg
* Reported Nov 9 9:00 am — Nov 24 9:30 am, Mulhouse. Weather by CustomWeather, © 2017

Note: Actual official high and low records may vary slightly from our data, if they occured in-between our weather recording intervals... More about our weather records

Advertising

Mulhouse Weather History for the Previous 24 Hours

Scroll right to see more
 ConditionsComfort  
Time TempWeatherWind HumidityBarometerVisibility
9:30 am
Fri, Nov 24
46 °FSunny.5 mph82%29.95 "Hg10 mi
9:00 am45 °FPassing clouds.7 mph87%29.98 "HgN/A
8:30 am45 °FSunny.8 mph87%29.95 "Hg10 mi
8:00 am45 °FSunny.9 mph87%29.98 "Hg10 mi
7:30 am43 °FClear.3 mph87%29.98 "Hg10 mi
7:00 am43 °FClear.6 mph81%29.98 "Hg10 mi
6:30 am43 °FPassing clouds.5 mph87%29.95 "HgN/A
6:00 am45 °FClear.5 mph81%29.95 "Hg10 mi
5:30 am43 °FPassing clouds.5 mph87%29.98 "HgN/A
5:00 am43 °FClear.2 mph81%29.98 "Hg10 mi
4:30 am45 °FClear.6 mph81%29.98 "Hg10 mi
4:00 am43 °FClear.6 mph87%29.98 "Hg10 mi
3:30 am45 °FClear.5 mph87%29.98 "Hg10 mi
3:00 am45 °FClear.3 mph87%29.98 "Hg10 mi
2:30 am45 °FClear.6 mph87%29.98 "Hg10 mi
2:00 am46 °FClear.6 mph82%29.98 "Hg10 mi
1:30 am46 °FLight rain. Passing clouds.2 mph82%29.98 "HgN/A
1:00 am46 °FPassing clouds.3 mph82%29.98 "HgN/A
12:30 am46 °FPassing clouds.3 mph82%29.98 "HgN/A
12:00 am46 °FClear.2 mph82%29.98 "Hg10 mi
11:30 pm
Thu, Nov 23
46 °FPassing clouds.5 mph82%29.98 "HgN/A
11:00 pm45 °FPassing clouds.5 mph87%29.98 "HgN/A
10:30 pm45 °FPassing clouds.5 mph93%29.98 "HgN/A
10:00 pm43 °FClear.2 mph87%29.98 "Hg10 mi
9:30 pm43 °FClear.3 mph87%29.98 "Hg10 mi
9:00 pm43 °FClear.No wind87%29.98 "Hg10 mi
8:30 pm43 °FClear.1 mph87%29.98 "Hg10 mi
8:00 pm46 °FClear.No wind82%29.98 "Hg10 mi
7:30 pm46 °FClear.2 mph76%29.95 "Hg10 mi
7:00 pm50 °FClear.3 mph71%29.95 "Hg10 mi
6:30 pm52 °FClear.3 mph67%29.95 "Hg10 mi
6:00 pm54 °FClear.5 mph67%29.95 "Hg10 mi
5:30 pm55 °FClear.5 mph59%29.95 "Hg10 mi
5:00 pm57 °FClear.6 mph59%29.95 "Hg10 mi
4:30 pm59 °FSunny.5 mph55%29.95 "Hg10 mi
4:00 pm61 °FSunny.3 mph55%29.92 "Hg10 mi
3:30 pm59 °FSunny.3 mph59%29.92 "Hg10 mi
3:00 pm57 °FSunny.3 mph63%29.92 "Hg10 mi
2:30 pm57 °FSunny.3 mph59%29.92 "Hg10 mi
2:00 pm59 °FSunny.5 mph51%29.92 "Hg10 mi
1:30 pm57 °FSunny.7 mph55%29.92 "Hg10 mi
1:00 pm57 °FPassing clouds.3 mph55%29.92 "HgN/A
12:30 pm57 °FPassing clouds.5 mph55%29.92 "HgN/A
12:00 pm54 °FSunny.7 mph67%29.89 "Hg10 mi
11:30 am50 °FSunny.6 mph71%29.92 "Hg10 mi
11:00 am48 °FSunny.3 mph71%29.92 "Hg10 mi
10:30 am46 °FSunny.3 mph76%29.89 "Hg10 mi
10:00 am45 °FPassing clouds.5 mph76%29.89 "HgN/A
Weather by CustomWeather, © 2017

See weather overview